Location: Hanover
(52.3667°N, 9.7167°E)
Time: 06:19:19
(UTC+01:00)

CUBESAT XI-V - Visible Passes

Search period start: 11 November 2024 00:00
Search period end: 21 November 2024 00:00
Orbit: 653 x 673 km, 98.2° (Epoch: 10 November)

Date Brightness Start Highest point End Pass type
(mag) Time Alt. Az. Time Alt. Az. Time Alt. Az.
12 Nov ? 17:12:27 10° N 17:15:45 20° WNW 17:19:02 10° WSW visible
13 Nov ? 17:44:07 10° NNW 17:45:54 12° NW 17:47:42 10° WNW visible
15 Nov ? 17:07:02 10° N 17:10:31 22° WNW 17:13:58 10° WSW visible
16 Nov ? 17:38:29 10° NNW 17:40:39 13° NW 17:42:48 10° W visible
18 Nov ? 17:01:30 10° N 17:05:07 23° WNW 17:08:43 10° WSW visible
19 Nov ? 17:32:44 10° NNW 17:35:13 15° NW 17:37:41 10° W visible
